{"data":{"norad_id":66960,"intl_designator":"2025-288B","name":"STARLINK-35879","alt_names":[],"object_type":"PAYLOAD","status":"ACTIVE","operator":null,"country":"US","launch_date":"2025-12-08","launch_site_code":"AFETR","launch_vehicle":null,"mission":null,"orbit_class":"UNKNOWN","rcs_meters":null,"size_class":null,"mass_kg":null,"dimensions":null,"purposes":["comms"],"wikipedia_slug":null,"has_3d_model":false,"image_url":null,"decayed_at":null,"tle_current":{"epoch":"2026-09-20T07:49:45.676704Z","epoch_age_seconds":96712,"freshness":"FRESH","line1":"1 66960U 25288B   26263.32622311  .00012665  00000+0  46886-3 0  9995","line2":"2 66960  43.0027   4.3304 0001273 278.1937  81.8770 15.27586634 45051","mean_motion":15.27586634,"eccentricity":0.0001273,"inclination_deg":43.0027,"raan_deg":4.3304,"arg_perigee_deg":278.1937,"mean_anomaly_deg":81.877,"bstar":0.00046886,"rev_number":4505,"period_min":94.266339332215,"perigee_km":482.1558050677,"apogee_km":483.90265799025,"semimajor_km":6861.166231529,"source":"CELESTRAK","updated_at":"2026-09-21T09:00:36.061986Z"}}}